User: anonymous   Login
Location: Bonn
(50.7330°N, 7.1000°E)
Time: 02:10:37
(UTC+02:00)
Language:

Iridium 84 - Orbit

View from above orbital plane
View from above orbital plane
View from above satellite
View from above satellite

Ground track
Ground track

The orbit data is extracted from the following two-line orbital elements,

1 25530U 98066D   15185.48276262  .00000283  00000-0  93974-4 0  9990
2 25530 086.3968 288.3122 0002275 094.3192 265.8264 14.34216961874703
Epoch (UTC): 04 July 2015 11:35:10
Eccentricity: 0.0002275
inclination: 86.3968°
perigee height: 776 km
apogee height: 779 km
right ascension of ascending node: 288.3122°
argument of perigee: 94.3192°
revolutions per day: 14.34216961
mean anomaly at epoch: 265.8264°
orbit number at epoch: 87470

The dashed part of the orbit path shows where the satellite is in the earth's shadow,  

DLR